Probability
45 45 45 45 55 52 48 42 52 55 58 48 42 39 42 39 35 42 26 26 29 29 26 26 26 32 35 35 29 23 19 19 23 23 19 16 29 26 13 16 10 16 6
45 45 52 48 45 45 45 42 45 45 42 42 42 42 39 39 35 35 29 26 23 26 19 19 26 26 26 32 35 26 19 23 26 16 16 26 26 29 29 26 10 6 13
42 45 48 45 39 29 35 29 32 32 35 39 39 35 29 29 32 29 26 23 19 19 16 19 19 19 26 26 29 29 23 16 19 19 13 26 13 13 32 16 10 23 10
42 42 39 29 32 29 26 26 32 29 29 35 35 35 32 26 26 23 16 13 16 13 13 16 19 23 19 23 26 29 26 23 19 16 13 16 26 26 26 19 23 23 16
35 35 35 29 32 29 26 26 26 26 23 23 29 29 29 29 23 16 13 10 13 16 16 16 16 13 6 10 13 19 26 26 23 16 16 19 23 26 23 19 19 19 26
29 29 26 29 29 26 26 26 29 26 23 26 23 26 29 23 3 0 3 6 13 19 16 16 16 6 6 0 0 0 3 16 16 19 19 23 23 19 26 23 26 23 19
26 26 26 26 26 23 23 23 26 26 26 26 23 23 26 19 0 0 0 3 16 16 16 13 6 3 6 10 0 0 0 0 0 26 16 19 26 23 26 23 26 19 16
23 23 23 23 26 19 23 23 29 29 29 29 26 26 26 16 0 0 0 3 10 16 16 16 13 13 6 13 10 3 10 3 0 6 19 26 19 29 32 26 29 26 16
23 23 23 23 23 26 26 26 32 32 32 26 26 26 26 13 0 0 0 10 13 16 16 16 16 13 3 0 6 10 6 10 0 0 0 3 0 3 10 19 23 10 13
23 23 26 26 26 23 26 26 26 29 29 29 26 29 23 23 0 0 0 6 16 13 19 16 3 6 0 0 3 10 10 6 13 3 0 0 0 0 0 13 19 13 10
19 19 23 23 23 23 23 26 26 26 29 26 23 19 23 16 3 0 0 10 13 10 13 10 3 0 0 0 0 6 6 6 6 16 13 19 19 32 19 13 29 13 10
19 19 23 23 23 19 23 19 23 26 26 26 26 23 19 19 3 0 0 0 0 10 6 3 3 0 0 0 0 0 0 0 3 3 10 10 16 23 26 16 29 26 42
19 19 23 23 23 19 19 19 16 19 16 16 19 16 16 16 6 0 0 0 0 3 6 0 0 0 0 0 0 0 0 0 3 6 6 6 10 16 29 39 32 35 32
19 19 19 19 19 16 16 16 16 19 16 10 13 10 16 16 10 0 0 0 0 0 3 0 0 0 0 0 0 0 0 0 0 6 10 0 6 19 26 16 23 19 13
16 16 19 16 13 16 16 16 16 19 16 13 16 13 13 19 6 3 3 0 0 0 0 3 3 0 0 0 0 3 0 0 0 3 10 3 3 13 13 3 16 3 10
13 19 16 13 13 13 16 16 6 3 3 3 3 3 6 3 0 0 0 0 0 0 0 0 3 3 0 0 0 0 3 3 3 0 0 0 0 3 3 0 3 3 3
13 13 13 13 13 13 13 13 10 6 0 0 0 3 3 0 0 0 0 0 0 0 0 3 3 3 0 0 0 0 0 3 3 3 0 0 0 6 0 0 0 0 0
13 6 10 10 6 10 10 13 10 10 6 6 0 0 0 0 0 0 0 0 0 0 0 3 3 3 0 3 3 0 0 0 3 3 3 3 3 6 3 0 3 3 3
13 10 10 6 6 10 10 10 6 3 6 3 6 3 0 0 0 0 0 0 3 0 0 3 3 0 0 0 0 0 0 0 0 3 3 3 3 3 3 0 0 0 0
10 6 10 6 6 6 3 6 6 6 3 3 3 0 0 0 0 0 0 0 0 3 0 0 3 3 3 3 0 0 0 0 0 3 3 3 3 3 3 0 0 0 3
13 3 3 3 3 3 3 3 3 3 3 3 3 0 0 0 0 3 3 0 0 0 0 0 6 6 3 3 10 6 3 3 3 3 3 3 3 3 6 3 3 0 3
6 6 3 3 3 3 3 3 3 3 3 3 0 0 0 0 0 0 0 0 0 0 0 0 3 6 3 6 6 10 6 3 3 3 3 3 3 6 3 3 0 0 0
10 6 3 3 3 3 3 3 3 3 3 0 0 0 0 0 0 0 0 0 0 0 0 3 3 3 3 6 6 6 6 3 3 3 3 6 6 3 3 3 0 0 0
6 6 3 3 3 3 3 3 3 3 0 0 0 0 0 0 0 0 0 0 0 0 0 0 0 3 6 6 3 6 6 3 3 3 6 6 6 3 0 3 3 0 0
6 3 3 3 3 3 3 3 0 0 0 0 0 0 0 0 0 0 0 0 0 0 0 0 0 0 3 3 3 3 3 0 0 3 3 6 6 3 0 0 3 3 0
6 3 3 3 3 3 3 0 0 0 0 0 0 0 0 0 0 0 0 0 0 0 0 0 0 0 3 3 3 0 0 0 0 0 0 3 3 3 0 0 0 3 0
Height
5839 5839 5839 5840 5839 5839 5839 5838 5838 5837 5837 5837 5836 5835 5835 5835 5835 5835 5834 5834 5833 5833 5833 5833 5833 5833 5832 5832 5832 5832 5832 5832 5833 5833 5833 5833 5833 5834 5833 5834 5833 5833 5834
5834 5834 5834 5834 5834 5834 5834 5833 5832 5832 5831 5831 5830 5830 5829 5829 5829 5829 5829 5828 5828 5827 5827 5827 5827 5827 5827 5827 5827 5827 5827 5828 5828 5828 5828 5828 5829 5829 5829 5829 5829 5829 5830
5828 5828 5828 5828 5828 5828 5828 5827 5827 5826 5825 5824 5824 5823 5823 5823 5823 5823 5822 5822 5822 5822 5821 5821 5821 5822 5822 5822 5822 5822 5822 5823 5823 5823 5823 5823 5824 5824 5824 5825 5825 5825 5825
5822 5822 5822 5822 5822 5822 5821 5821 5820 5820 5819 5818 5817 5817 5816 5816 5816 5816 5816 5816 5816 5816 5815 5816 5816 5816 5816 5816 5816 5816 5816 5817 5817 5817 5818 5818 5818 5819 5819 5820 5820 5821 5821
5815 5815 5815 5815 5815 5815 5814 5814 5814 5813 5813 5812 5811 5810 5810 5810 5810 5810 5810 5810 5809 5809 5809 5809 5809 5810 5810 5810 5811 5811 5811 5811 5812 5812 5812 5813 5813 5814 5814 5815 5815 5816 5816
5808 5808 5807 5807 5807 5807 5807 5806 5806 5806 5806 5805 5804 5803 5803 5803 5803 5803 5803 5803 5803 5803 5803 5803 5803 5803 5803 5804 5805 5805 5806 5806 5806 5807 5807 5807 5808 5808 5809 5809 5810 5811 5811
5800 5800 5800 5800 5799 5799 5798 5798 5798 5798 5798 5798 5798 5797 5796 5796 5796 5796 5796 5796 5796 5796 5796 5796 5796 5796 5797 5797 5798 5798 5799 5799 5800 5801 5801 5801 5802 5802 5803 5803 5804 5804 5805
5793 5792 5792 5791 5791 5790 5790 5789 5789 5790 5790 5790 5790 5790 5790 5789 5789 5789 5789 5789 5789 5789 5789 5790 5790 5790 5790 5790 5791 5791 5792 5792 5793 5794 5794 5795 5795 5796 5797 5797 5798 5798 5799
5785 5784 5784 5783 5782 5782 5781 5781 5781 5781 5781 5781 5782 5781 5781 5781 5781 5781 5781 5781 5782 5782 5782 5782 5782 5783 5783 5783 5783 5784 5784 5785 5785 5786 5787 5787 5788 5789 5790 5791 5792 5792 5793
5776 5776 5775 5775 5774 5773 5773 5773 5772 5772 5772 5772 5772 5772 5773 5773 5773 5773 5773 5774 5774 5774 5774 5774 5775 5775 5775 5775 5776 5776 5777 5777 5778 5779 5779 5780 5781 5782 5783 5784 5785 5786 5786
5767 5767 5766 5766 5765 5764 5764 5764 5764 5764 5764 5763 5763 5763 5764 5764 5765 5765 5765 5765 5766 5766 5766 5767 5767 5767 5767 5767 5768 5768 5769 5769 5770 5771 5771 5772 5773 5775 5776 5777 5778 5779 5779
5758 5758 5757 5756 5756 5755 5755 5755 5754 5754 5754 5754 5754 5754 5754 5755 5756 5756 5757 5757 5757 5758 5758 5759 5759 5759 5760 5760 5760 5761 5761 5762 5762 5763 5763 5764 5766 5767 5768 5769 5770 5771 5771
5749 5749 5748 5747 5746 5746 5746 5745 5745 5745 5745 5744 5744 5744 5745 5746 5746 5747 5748 5748 5749 5749 5750 5750 5751 5751 5752 5752 5753 5753 5753 5754 5754 5755 5756 5757 5758 5759 5760 5761 5762 5763 5763
5740 5740 5739 5738 5737 5737 5736 5736 5736 5735 5735 5735 5735 5735 5736 5736 5737 5738 5739 5739 5740 5740 5741 5741 5742 5742 5743 5744 5744 5745 5745 5745 5746 5747 5748 5749 5749 5750 5751 5753 5754 5754 5755
5731 5730 5730 5729 5728 5727 5727 5726 5726 5726 5725 5726 5726 5726 5726 5727 5728 5728 5729 5730 5731 5731 5732 5732 5733 5734 5734 5735 5736 5736 5736 5737 5737 5739 5739 5740 5741 5742 5743 5744 5745 5746 5747
5722 5721 5720 5719 5719 5718 5717 5716 5716 5716 5716 5716 5716 5717 5717 5717 5718 5719 5720 5721 5721 5721 5722 5723 5724 5724 5725 5726 5726 5727 5728 5728 5729 5730 5731 5732 5732 5733 5734 5735 5736 5737 5738
5713 5712 5711 5710 5709 5708 5707 5706 5706 5707 5706 5706 5707 5707 5707 5708 5709 5709 5710 5711 5711 5712 5712 5713 5714 5715 5716 5716 5717 5718 5718 5719 5719 5720 5721 5722 5723 5724 5725 5726 5727 5727 5728
5703 5703 5702 5701 5700 5699 5698 5697 5697 5697 5697 5697 5697 5697 5698 5698 5699 5699 5700 5700 5701 5702 5703 5704 5704 5705 5706 5706 5707 5708 5709 5709 5710 5710 5711 5712 5712 5713 5714 5716 5717 5717 5718
5694 5693 5692 5691 5690 5689 5689 5688 5688 5688 5688 5688 5688 5688 5688 5688 5688 5689 5689 5690 5691 5691 5692 5693 5694 5695 5695 5696 5697 5697 5698 5699 5700 5700 5701 5701 5702 5703 5704 5705 5706 5707 5708
5685 5684 5683 5682 5681 5681 5680 5680 5679 5679 5678 5678 5678 5678 5678 5678 5678 5679 5679 5679 5680 5681 5681 5682 5683 5684 5684 5685 5686 5687 5687 5688 5689 5689 5690 5691 5692 5692 5693 5694 5695 5696 5697
5676 5675 5674 5674 5673 5672 5672 5671 5671 5670 5670 5669 5669 5668 5668 5668 5668 5668 5669 5669 5669 5670 5670 5671 5672 5673 5673 5674 5675 5675 5676 5677 5677 5678 5679 5680 5681 5682 5683 5683 5684 5685 5686
5667 5666 5666 5665 5665 5664 5663 5663 5662 5662 5661 5660 5660 5659 5658 5658 5658 5658 5658 5658 5658 5659 5659 5660 5660 5661 5662 5663 5663 5664 5664 5665 5666 5667 5668 5669 5670 5671 5671 5672 5673 5674 5675
5658 5658 5657 5656 5656 5655 5655 5654 5653 5653 5652 5651 5650 5649 5648 5648 5647 5647 5647 5647 5647 5648 5648 5648 5649 5649 5650 5651 5651 5652 5653 5654 5655 5655 5656 5658 5659 5660 5660 5662 5662 5663 5664
5649 5649 5648 5647 5647 5646 5645 5645 5644 5643 5642 5642 5641 5640 5639 5638 5637 5637 5637 5637 5637 5637 5637 5637 5638 5638 5639 5639 5640 5641 5641 5642 5643 5644 5645 5646 5647 5649 5649 5650 5651 5652 5653
5640 5639 5638 5638 5637 5636 5636 5635 5635 5634 5633 5632 5631 5630 5629 5628 5628 5627 5627 5626 5626 5626 5626 5626 5627 5627 5628 5628 5629 5630 5630 5631 5632 5633 5634 5635 5636 5637 5638 5640 5641 5641 5642
5630 5629 5629 5628 5627 5627 5626 5626 5625 5624 5623 5623 5622 5621 5620 5619 5618 5618 5617 5617 5617 5617 5617 5617 5617 5617 5617 5618 5618 5619 5620 5621 5621 5622 5623 5624 5625 5626 5628 5629 5630 5630 5631
Wind_Speed
18 19 19 20 20 21 20 20 20 20 21 22 22 22 22 22 21 21 20 19 19 19 19 19 19 18 17 17 16 16 16 16 17 17 17 17 17 17 16 16 15 15 14
21 20 21 21 22 22 22 22 22 22 23 22 23 23 23 23 22 22 21 21 21 21 21 21 20 19 19 18 18 18 17 17 18 18 18 18 18 18 17 17 17 15 15
22 22 23 23 23 23 24 24 23 23 23 23 24 23 23 23 22 22 22 23 22 22 22 21 21 20 20 19 19 19 19 18 18 18 19 19 19 19 19 18 18 17 16
23 23 23 24 24 24 25 25 25 25 24 24 24 25 25 25 24 23 23 23 22 22 22 21 21 21 21 21 21 20 19 19 20 19 20 20 20 20 19 18 18 17 17
25 25 25 25 25 26 26 27 27 27 26 24 25 26 26 26 26 25 24 23 23 23 23 22 22 22 22 22 21 21 20 20 20 20 20 20 20 19 19 19 18 18 18
26 27 26 26 27 28 28 28 28 28 27 26 25 26 27 26 26 25 24 24 24 24 24 24 23 23 23 23 22 22 22 21 20 20 20 20 20 20 20 20 20 20 20
26 26 27 28 28 29 29 29 29 29 28 27 25 25 26 26 25 25 24 24 24 24 23 23 23 23 24 24 24 24 23 22 22 21 21 21 21 21 21 21 21 21 20
27 27 27 27 28 28 29 29 28 28 29 28 28 28 27 26 26 26 25 24 24 24 24 24 24 24 24 24 25 25 24 24 24 24 23 23 22 22 22 22 21 21 21
28 28 28 29 29 29 28 27 27 28 29 29 29 29 28 27 27 28 26 25 25 25 25 24 24 25 25 25 26 26 26 26 26 26 25 25 24 24 23 23 23 23 23
29 29 29 29 29 29 28 28 28 28 29 29 29 29 28 28 28 28 27 26 26 26 26 26 25 25 25 26 27 27 27 27 27 27 27 26 26 25 25 25 25 25 25
30 30 30 30 30 30 29 29 30 30 30 29 29 30 30 29 29 28 28 28 27 28 27 27 26 25 25 25 26 26 26 26 27 27 27 27 27 27 27 26 26 26 26
31 31 30 31 31 31 30 30 30 29 30 30 30 29 30 30 30 30 30 29 29 29 28 28 27 26 26 26 26 25 26 26 27 27 26 26 27 28 27 27 27 27 26
31 31 32 31 31 31 30 30 30 29 29 29 29 29 29 29 29 29 30 30 29 29 28 28 28 27 27 26 26 26 26 27 27 27 27 27 27 28 28 28 28 27 27
31 31 30 31 31 31 30 31 31 31 30 30 29 29 29 29 29 29 29 29 29 29 29 29 29 28 27 27 27 27 27 27 27 28 27 27 27 28 28 29 29 29 29
30 30 30 30 30 30 30 30 31 31 30 30 30 29 29 29 29 29 29 29 29 29 29 30 29 29 29 28 28 27 27 27 28 28 28 28 29 29 30 30 30 30 30
29 30 30 30 30 30 30 31 30 30 30 30 30 30 30 29 29 30 30 30 29 29 30 29 29 30 30 30 29 29 28 28 28 29 29 30 31 31 31 31 31 31 31
30 30 30 31 31 30 30 30 30 30 29 29 29 30 30 30 30 31 30 30 30 30 31 31 31 31 31 31 30 30 30 29 30 30 31 31 32 32 32 32 32 32 32
29 29 30 30 30 30 29 29 29 29 29 29 30 30 30 30 30 30 30 30 30 31 32 32 32 32 32 32 31 31 31 31 31 31 32 33 32 32 32 33 32 33 33
27 28 28 28 28 27 27 27 27 27 28 28 29 29 29 30 30 30 30 31 31 31 31 32 32 32 32 32 32 32 32 32 32 32 32 32 33 33 33 33 33 33 33
26 26 26 26 26 26 27 26 27 26 26 27 28 28 28 28 29 30 30 31 31 31 31 31 31 31 32 32 32 33 33 33 33 33 33 33 32 32 33 33 33 33 34
25 25 26 26 26 25 26 26 26 26 26 27 27 27 27 28 29 29 30 31 31 31 31 31 32 32 32 33 33 34 34 34 34 33 33 33 32 32 32 32 33 33 33
26 25 25 25 26 25 25 26 26 26 27 27 28 28 28 29 29 30 31 31 32 32 32 32 33 33 33 33 34 34 34 34 34 34 33 33 33 33 32 32 32 33 33
26 26 26 26 26 26 26 26 26 26 27 27 28 28 29 29 29 29 29 30 31 31 32 32 33 33 33 33 33 33 34 34 34 34 34 33 33 33 33 33 32 32 32
27 27 27 26 26 26 26 26 26 27 27 27 28 28 27 28 28 28 28 29 30 29 30 30 31 31 31 32 32 33 33 33 33 33 33 33 33 32 32 32 32 32 32
26 27 27 27 27 27 27 27 27 27 27 27 27 27 27 26 26 27 27 28 28 29 29 28 29 29 30 30 31 31 31 31 32 32 32 32 32 32 32 32 32 32 32
26 27 27 27 28 28 28 28 27 27 27 26 26 26 26 25 25 25 26 26 26 27 27 27 27 27 27 28 28 29 30 30 31 31 31 31 32 32 32 31 31 31 31
Wind_Direction
260 258 260 262 265 267 269 271 272 273 274 275 273 272 270 271 273 273 274 272 270 268 267 269 269 269 268 268 267 268 267 266 265 264 264 265 265 264 264 265 267 270 270
261 261 261 263 266 267 269 270 272 272 272 273 273 271 270 270 271 270 271 271 270 269 269 269 269 268 267 266 266 266 267 267 266 264 263 264 264 264 264 265 265 267 267
264 265 263 264 266 268 268 269 271 273 273 274 272 271 271 270 271 269 271 269 267 267 268 268 267 267 266 266 266 266 266 267 267 265 262 262 262 264 264 263 263 263 264
268 270 267 264 265 268 268 269 271 271 272 273 271 270 268 268 270 270 273 269 267 266 266 267 265 264 264 265 266 266 266 267 266 265 264 261 260 261 262 262 261 262 262
268 270 268 266 266 268 268 269 270 269 270 272 271 268 266 267 270 269 269 267 267 266 264 265 265 263 263 264 265 266 266 266 266 265 264 261 259 259 260 261 262 261 262
268 270 268 266 267 269 269 269 269 268 268 271 271 267 266 268 269 269 266 265 267 266 264 264 265 264 264 264 265 266 266 265 265 266 266 262 260 259 259 259 261 263 263
270 270 271 270 268 269 268 268 267 266 266 267 267 267 269 269 268 267 267 266 265 266 266 267 268 268 267 266 264 264 264 264 263 265 265 263 261 260 259 260 261 262 262
270 270 271 274 272 271 269 267 265 264 265 266 267 269 269 268 268 268 266 265 265 265 266 267 269 268 268 266 264 263 262 262 261 263 264 262 261 261 261 261 261 260 262
269 271 272 275 275 273 273 269 267 266 266 266 267 268 267 266 268 267 265 265 265 267 268 268 270 268 266 265 264 263 262 262 261 263 264 261 260 261 261 261 261 262 262
271 270 272 273 274 272 272 271 269 268 268 268 267 266 267 266 266 264 264 264 264 267 268 269 269 268 266 266 264 264 263 262 260 261 264 262 259 258 259 260 261 262 262
270 270 272 274 274 272 270 270 269 268 268 268 268 268 266 265 265 264 264 264 265 266 267 267 267 266 266 265 264 264 263 262 261 262 263 261 258 258 258 259 261 262 263
271 272 273 274 274 271 270 269 268 267 267 268 268 267 266 265 264 263 263 264 265 265 264 265 265 265 265 264 265 264 263 262 262 262 262 261 259 258 257 258 261 262 263
272 273 274 274 276 274 272 270 268 268 268 269 267 266 265 264 263 262 262 262 263 264 264 264 263 264 264 264 265 264 263 262 262 263 262 261 260 258 257 258 261 263 263
273 275 276 277 278 275 273 272 271 270 268 268 267 266 264 262 261 260 260 261 262 262 262 262 262 262 263 263 264 264 264 262 261 261 260 259 259 260 259 260 262 264 265
274 275 277 278 277 274 272 273 273 271 268 266 266 267 266 261 261 261 261 262 260 261 262 262 261 261 263 263 264 264 263 262 261 260 260 259 259 261 262 262 263 264 265
276 276 276 277 277 276 275 273 272 270 268 267 267 266 265 263 260 259 259 259 260 260 262 261 261 261 262 263 264 264 263 263 262 261 261 261 260 261 261 262 262 263 264
277 278 277 278 277 277 277 275 272 269 269 268 268 268 266 263 261 259 258 259 260 261 262 262 261 262 264 264 264 263 263 263 263 263 263 262 262 261 261 261 261 262 264
276 278 279 278 278 277 276 275 274 272 270 268 268 267 266 263 262 261 261 261 261 262 262 262 261 262 263 263 263 263 264 264 264 264 264 264 263 263 262 262 262 263 264
277 279 280 279 277 276 275 274 275 273 270 269 268 267 265 263 262 261 262 262 263 263 263 262 262 262 262 261 262 263 265 265 264 264 264 264 264 263 263 262 262 263 263
278 278 278 278 277 275 275 274 274 274 273 273 272 270 269 266 263 262 263 263 263 263 263 263 263 263 262 262 263 264 264 264 264 263 263 264 265 265 264 263 263 263 264
277 278 277 276 275 276 275 274 274 274 274 273 272 271 271 269 266 265 266 265 264 264 263 263 263 262 262 263 264 264 264 264 264 264 263 262 263 264 263 263 263 264 265
276 276 276 275 274 274 275 273 272 273 272 271 271 271 271 271 270 269 267 266 265 265 265 265 264 263 263 263 263 262 262 263 263 263 262 261 261 262 263 263 263 263 264
274 275 275 275 273 273 273 274 273 273 272 272 273 274 273 273 272 271 270 269 269 267 266 265 265 264 264 264 263 262 262 262 261 261 261 261 261 260 261 262 262 263 264
275 274 275 275 273 272 272 274 274 274 275 275 274 274 275 275 274 273 272 271 270 268 266 265 265 264 264 263 262 262 262 261 261 261 261 261 260 260 261 261 262 262 263
275 275 274 275 275 273 273 274 274 274 275 275 275 274 274 275 274 274 272 271 270 269 267 267 266 265 264 262 262 263 263 263 262 262 261 260 259 259 260 262 262 263 264
277 276 275 275 275 274 273 273 274 275 275 274 274 275 275 275 275 275 274 272 270 268 267 267 267 266 265 264 263 263 263 264 264 263 260 259 259 260 260 262 263 264 265